Regional Weather Roundup
Issued by NWS

Home | Current Version | Previous Version | Graphics & Text | Print | Product List | Glossary On
Versions: 1 2 3 4 5 6 7 8 9 10 11 12 13 14 15 16 17 18 19 20 21 22 23 24 25 26 27 28 29 30 31 32 33 34 35 36 37 38 39 40 41 42 43 44 45 46 47 48 49 50
000
ASUS43 KIND 011359
RWRIN

WEATHER ROUNDUP FOR INDIANA
NATIONAL WEATHER SERVICE INDIANAPOLIS IN
1000 AM EDT SAT OCT 01 2016

NOTE: "FAIR" INDICATES FEW OR NO CLOUDS BELOW 12,000 FEET WITH NO
SIGNIFICANT WEATHER AND/OR OBSTRUCTIONS TO VISIBILITY.

* - STATION DOES NOT REPORT WEATHER SUCH AS PRECIPITATION OR FOG.

+ - STATION NOT QUALITY CONTROLLED BY THE NATIONAL WEATHER SERVICE.
    USE DATA WITH CAUTION...ESPECIALLY DEWPOINT AND RELATIVE
    HUMIDITY OBSERVATIONS.

INZ001>003-010>013-019-020-011500-
NORTHWEST INDIANA

CITY           SKY/WX    TMP DP  RH WIND       PRES   REMARKS
GARY /AIRPORT/ LGT RAIN  61  61 100 CALM      30.01S
KNOX *+        CLOUDY    57  52  82 NE3       30.00R
MONTICELLO +   CLOUDY    58  55  87 SW5       30.00R
RENSSELAER +   DRIZZLE   59  59 100 CALM      29.99F

$$

LMZ046-743>745-011500-
SOUTHERN LAKE MICHIGAN

STATION/POSITION TIME  TEMP    WIND        PRES    WAVE
                       AIR SEA DIR/SP/G            HT
                 (UTC) (F)     (DEG/KT/KT) (MB)    (FT)
BURNS HARBOR     1340   61      60/ 10/ 13 1016.6R
MICHIGAN CITY    1330   59      60/  5/  6   N/A
5NW MICH CITY    1350   60 64   40/ 10/ 14   N/A     4

$$

INZ004-005-014>016-021>024-011500-
NORTH CENTRAL INDIANA

CITY           SKY/WX    TMP DP  RH WIND       PRES   REMARKS
GOSHEN         CLOUDY    61  57  87 SE7       30.00S
SOUTH BEND     CLOUDY    59  58  96 NE8       30.00F

$$

INZ006>009-017-018-025>027-011500-
NORTHEAST INDIANA

CITY           SKY/WX    TMP DP  RH WIND       PRES   REMARKS
ANGOLA *+        N/A     61  52  72 SE7       30.02S
FORT WAYNE     CLOUDY    57  55  93 S9        30.03S
KENDALLVILLE + CLOUDY    60  58  94 SE8       30.02S FOG

$$

INZ028-029-035-036-043>045-051>053-011500-
WEST CENTRAL INDIANA

CITY           SKY/WX    TMP DP  RH WIND       PRES   REMARKS
CRAWFORDSVL +  CLOUDY    55  55 100 S3        30.01F
GREENCASTLE +  CLOUDY    54  54 100 S3        30.03R FOG
LAFAYETTE      CLOUDY    57  57 100 S5        30.01R FOG
TERRE HAUTE    CLOUDY    56  54  93 S5        30.02S

$$

INZ030>032-037>040-046>048-054>057-064-065-011500-
CENTRAL INDIANA

CITY           SKY/WX    TMP DP  RH WIND       PRES   REMARKS
ANDERSON       PTSUNNY   57  55  94 S5        30.04F FOG
FRANKFORT +    CLOUDY    60  56  88 S5        30.03S
INDIANAPOLIS   FOG       53  53 100 SE9       30.03R VSB 1/2
-EAGLE CREEK   MOSUNNY   57  54  89 SE6       30.02S
KOKOMO *+      LGT RAIN  56  54  93 S9        30.03S
MT COMFORT *+  MOSUNNY   57  54  88 S5        30.03F
SHELBYVILLE    MOSUNNY   59  52  77 SE7       30.03S

$$

INZ033-034-041-042-049-050-058-059-011500-
EAST CENTRAL INDIANA

CITY           SKY/WX    TMP DP  RH WIND       PRES   REMARKS
MUNCIE         CLOUDY    58  54  86 S5        30.04R

$$

INZ060-061-067>069-081>083-085>088-011500-
SOUTHWEST INDIANA

CITY           SKY/WX    TMP DP  RH WIND       PRES   REMARKS
EVANSVILLE     CLOUDY    61  59  93 CALM      30.04R FOG
HUNTINGBURG *+   N/A     57  55  94 S7        30.04R

$$

INZ062-063-066-070>080-084-089>092-011500-
SOUTH CENTRAL AND SOUTHEAST INDIANA

CITY           SKY/WX    TMP DP  RH WIND       PRES   REMARKS
BLOOMINGTON    FOG       53  51  93 S3        30.04R VSB 1/4
MADISON *+     CLOUDY    55  54  94 CALM      30.07S VSB 1
SEYMOUR +      FOG       55  55 100 CALM      30.05S VSB 1/2

$$




USA.gov is the U.S. government's official web portal to all federal, state and local government web resources and services.